Location: Nairn
(57.5833°N, 3.8667°W)
Time: 18:21:09
(UTC+00:00)

SL-16 R/B - Pass Details

Date: 07 August 2020
Orbit: 840 x 849 km, 71.0° (Epoch: 23 September)

Event Time Altitude Azimuth Distance (km) Brightness Sun altitude
Rises 01:55:41 0° 323° (NW) 3,426 5.8 -13.5°
Reaches altitude 10° 01:58:09 10° 322° (NW) 2,488 5.0 -13.4°
Maximum altitude 02:03:52 80° 237° (WSW) 869 2.2 -13.1°
Drops below altitude 10° 02:09:33 10° 151° (SSE) 2,472 4.3 -12.8°
Sets 02:11:59 0° 151° (SSE) 3,403 5.0 -12.6°
